Tracking 20037 objects as of 20-Nov-2019
Live streaming from Space Station
objects crossing your sky now

TES

Track TES now!
10-day predictions
TES is classified as:


NORAD ID: 26957
Int'l Code: 2001-049A
Perigee: 513.7 km
Apogee: 565.1 km
Inclination: 97.7 °
Period: 95.3 minutes
Semi major axis: 6910 km
RCS: 3.0893 m2 (large)
Launch date: October 22, 2001
Source: India (IND)
Launch site: SRIHARIKOTA (SRI)

Takes high resolution photos of anything over 3 feet; called prototype for India's "spy satellite."
aabbcc
Your satellite tracking list
Your tracking list is empty




NASA's NSSDC Master Catalog

Two Line Element Set (TLE):
1 26957U 01049A   19324.32375201  .00000562  00000-0  36971-4 0  9998
2 26957  97.7112  77.9097 0037190 229.9043 129.8928 15.11297404992212
Source of the keplerian elements: AFSPC